STARLINK-35579

Last updated on Wed Dec 31 2025 00:02:06 GMT+0000 (Coordinated Universal Time)

1 66562U 25268F 25364.58335648 .00049109 00000+0 17841-2 0 9995 2 66562 43.0004 17.3398 0000976 268.9815 350.7469 15.27546556 6028
UTC large
Height (km)
Speed (km/s)
/
Latitude / Longitude
Inclination (degrees)
Orbital Period (minutes)
Azimuth
Elevation
Range (km)
Doppler Factor

Next 0 passes for location: London (51.5072 / 0.1276)

Sorry there are no passes over London.